Vertical_Velocity
-4 1 -2 -3 -1 -2 -2 -3 -1 -0 -1 -1 -1 -1 0 -0 0 -1 -0 -0 0 -1 -3 0 -1 -1 -1 0 -1 -1 -1 0 -1 -1 -1 -1 -0 -1 -2 -1 -1 -2 0
-1 0 -1 -4 -2 -2 -3 -2 -2 -1 -1 -1 -0 -0 -0 -1 -1 -1 -1 0 -0 -1 -3 -1 -1 0 -1 -1 0 -1 -1 -1 -0 -0 -1 -0 -0 -1 -2 -1 -1 -2 0
-0 -2 0 -4 -2 -3 -4 -2 -2 -1 -2 -0 -1 -0 -2 -1 -1 -0 -1 -0 -0 -2 -2 -1 -0 0 -1 -1 0 -0 -1 -1 -0 -0 -0 -4 0 -0 -1 -1 0 -2 -0
3 -5 -0 -4 -2 -4 -4 -2 -3 -1 -2 -1 -1 1 -3 -2 -0 -1 -1 -1 0 0 -1 -1 -1 0 -1 -1 -0 1 -1 -1 -2 2 -4 -0 -0 0 -0 0 1 -0 -1
3 -1 -4 -2 -2 -2 -4 -3 -2 -1 -2 -2 -2 -1 1 -1 -0 -2 -1 -1 -1 -1 -1 -1 -1 0 -0 -1 0 1 -0 -2 -1 -4 -1 -1 -1 1 -0 -0 -0 -2 -1
3 1 -0 -2 -2 1 -2 -4 -2 -2 -1 -2 -2 -2 0 -1 -1 -0 -1 -0 -1 -1 -0 0 0 -1 -0 -0 -1 1 -0 -3 1 -2 -1 -2 -1 -1 -1 -2 -0 -2 -1
5 -2 2 -2 -2 -0 0 -1 -3 -1 -0 -0 -3 -3 -1 -2 -1 -2 -2 -2 -2 -1 1 -1 0 -1 -0 -0 -3 -1 -0 -2 -2 -2 -3 -2 -1 -1 -1 -4 -3 -1 -2
2 2 4 -0 -2 -2 1 -0 -2 -2 -2 -1 -2 -3 -3 -3 -1 -2 -3 -3 -2 -3 -1 -2 -3 -2 -1 -1 -2 -0 -2 -2 -3 -1 -1 -2 -2 0 -2 -0 -1 -3 0
-1 2 3 2 -1 -1 -1 1 0 0 -3 0 0 -2 -3 -4 -3 -2 -3 -3 -2 -2 0 -1 -2 -1 -1 -1 -2 -2 -2 -1 -2 -1 -1 -1 -1 0 0 -1 -1 -2 -1
-2 7 3 6 1 -2 1 1 -1 -1 -0 -1 -1 -1 -2 -1 -1 -1 -1 -3 -3 -2 -2 -1 -2 -1 -2 -1 -2 -1 -1 -1 -1 -1 -0 -0 -0 -2 -1 -2 -2 -1 -1
-4 2 -0 5 2 -1 -1 2 -0 3 -0 1 1 -1 0 -1 0 1 -0 1 -1 1 -0 1 0 -1 -0 -0 -1 -1 -1 -1 -1 -1 -1 -1 -1 -1 -0 -1 -2 -2 -2
-1 -2 -1 3 5 0 -1 2 1 1 1 -2 1 -1 -2 -0 -2 0 -1 0 -0 -1 -1 -1 -1 -0 0 -0 1 -0 -0 -0 -1 -0 -0 0 1 -1 -0 2 -0 -1 -1
2 5 -2 1 5 2 -5 6 2 0 1 -1 -1 2 -2 -1 -0 1 -1 -0 -0 -0 0 -0 -0 -0 0 0 0 0 -0 0 -1 0 0 -1 -1 0 -0 1 -0 -1 -1
1 1 2 -1 -0 3 -0 1 5 -0 -0 1 -1 -0 2 -0 -1 0 -1 -0 -1 0 0 0 -0 0 0 -0 -0 -1 -1 0 -1 -1 -2 -1 -1 0 0 -0 -1 -2 -2
-2 -1 5 -2 2 0 2 -0 1 4 -1 -0 -1 -0 -0 0 1 -0 -1 -1 -1 0 0 -0 0 -1 -1 -1 -1 -2 -2 -1 -1 -2 -0 1 -1 -2 -2 -3 -0 1 -3
-0 0 -2 1 -1 2 -1 0 -0 0 2 -3 2 -2 -0 0 0 1 1 -1 0 0 -0 -0 0 0 -0 -0 -1 -2 -2 -1 -1 -2 -0 -4 0 -3 -1 -2 -2 -4 -1
2 1 -2 -2 -0 -0 2 -2 -1 -1 -3 1 -1 3 -0 -0 -0 -1 -1 0 -1 -1 -0 -1 -0 -1 0 -0 -0 -2 -2 -1 -2 -2 -0 -0 -4 1 -2 -2 -1 -1 -2
-0 1 -1 -1 -1 -3 -1 -1 -2 -1 -2 -2 1 0 2 -0 -1 -1 -1 -2 -2 -1 -0 -0 -1 -0 -0 -0 -0 -1 -2 -1 0 -1 -2 -3 -1 -1 -3 0 -2 -1 -1
1 0 2 1 0 0 0 1 -0 1 -1 -0 2 1 -0 1 1 -0 -1 -0 -2 -2 -2 0 0 -0 -0 -1 -1 1 0 -1 -1 -2 0 -2 -2 -2 2 -3 1 1 -1
1 3 0 0 -2 1 -2 -1 -1 1 2 1 1 0 -1 -2 0 2 0 -2 -0 -0 -1 -1 -0 0 -1 -0 1 1 0 -1 -0 -0 2 -0 1 -1 -1 2 -2 -0 1
-0 -1 -1 3 3 0 -0 -0 2 -0 -0 -2 -1 -1 0 -1 -1 1 1 2 -2 -0 -0 1 -0 -1 -1 2 -3 4 -3 -2 -1 3 1 0 1 -0 0 -1 0 0 -1
-0 -2 -0 -0 0 1 2 2 0 0 -1 0 -1 1 -3 -1 0 -1 0 3 1 -2 1 1 1 -0 1 2 -3 1 -5 1 6 -8 1 3 1 -0 1 1 0 -0 -0
1 -0 -2 0 1 0 2 -1 -2 1 -1 -0 -0 0 -3 -1 0 -1 -1 0 2 -1 -0 1 1 1 1 1 2 0 -3 -2 -5 -3 -5 1 3 1 -1 0 1 1 -0
1 4 -1 -1 0 -0 -0 -3 0 -2 -1 -2 1 -0 -0 1 -2 0 -0 -0 1 2 1 2 4 1 1 0 -1 4 2 3 -2 -3 1 2 -1 0 -0 3 0 -0 1
-3 3 7 3 -2 2 2 0 1 1 0 -1 0 -0 -0 -1 1 1 1 0 1 -0 0 1 1 0 2 -0 -1 0 1 1 3 -1 0 -1 -0 -2 0 1 -1 -1 -1
1 3 -0 6 0 5 -4 1 2 -0 3 1 -0 0 -1 1 -0 1 1 1 3 -1 -1 -0 0 0 2 -0 -1 2 2 -1 3 -2 1 3 2 2 1 -1 1 -3 -1
Height
3173 3174 3174 3173 3173 3174 3174 3174 3175 3175 3175 3175 3175 3174 3174 3174 3174 3174 3174 3174 3175 3176 3177 3179 3179 3180 3180 3181 3181 3181 3181 3180 3180 3180 3180 3179 3178 3178 3177 3176 3176 3175 3175
3174 3174 3174 3174 3175 3175 3176 3176 3176 3177 3177 3177 3177 3177 3176 3177 3177 3177 3176 3177 3177 3178 3179 3180 3181 3181 3182 3182 3182 3182 3182 3182 3182 3182 3181 3180 3180 3179 3178 3177 3177 3176 3175
3174 3175 3175 3176 3177 3177 3177 3178 3178 3178 3178 3179 3179 3179 3179 3179 3179 3179 3179 3179 3180 3181 3182 3182 3183 3183 3184 3184 3185 3185 3184 3185 3184 3183 3183 3181 3181 3180 3179 3179 3178 3177 3177
3174 3175 3176 3177 3179 3180 3179 3180 3180 3181 3181 3181 3181 3181 3182 3181 3181 3181 3182 3182 3183 3183 3184 3184 3185 3186 3186 3187 3187 3187 3187 3187 3186 3186 3184 3183 3183 3181 3181 3180 3179 3178 3177
3174 3176 3177 3178 3180 3182 3182 3182 3182 3183 3183 3184 3184 3184 3184 3184 3184 3185 3185 3185 3186 3186 3186 3187 3188 3188 3189 3189 3189 3190 3189 3189 3188 3187 3186 3185 3184 3183 3182 3181 3180 3179 3178
3174 3175 3177 3178 3180 3182 3184 3184 3185 3185 3186 3186 3186 3186 3187 3186 3187 3187 3188 3188 3189 3189 3189 3190 3190 3191 3191 3192 3192 3191 3191 3191 3190 3189 3188 3187 3186 3185 3183 3183 3182 3181 3179
3173 3175 3177 3178 3180 3182 3184 3186 3187 3187 3188 3189 3189 3189 3189 3189 3189 3190 3191 3191 3192 3192 3192 3192 3193 3193 3193 3193 3193 3193 3193 3192 3191 3190 3190 3189 3188 3187 3185 3184 3183 3182 3180
3172 3174 3177 3178 3179 3182 3184 3186 3188 3189 3189 3190 3191 3191 3191 3192 3192 3193 3194 3194 3194 3194 3194 3194 3194 3195 3195 3195 3195 3195 3194 3194 3193 3192 3191 3190 3190 3188 3187 3186 3184 3183 3181
3171 3173 3176 3178 3180 3181 3183 3185 3188 3190 3191 3191 3192 3193 3193 3194 3195 3195 3196 3196 3196 3196 3196 3197 3197 3197 3197 3197 3197 3197 3196 3195 3194 3193 3192 3191 3190 3189 3188 3187 3186 3184 3182
3169 3172 3175 3177 3180 3182 3183 3185 3187 3189 3191 3192 3193 3194 3195 3196 3196 3196 3197 3198 3198 3198 3198 3198 3198 3199 3199 3198 3198 3197 3196 3195 3194 3193 3192 3191 3191 3189 3188 3187 3186 3184 3182
3166 3171 3174 3176 3179 3181 3183 3185 3187 3189 3191 3192 3193 3194 3195 3196 3197 3198 3198 3199 3199 3199 3199 3199 3199 3199 3198 3198 3198 3197 3196 3195 3194 3192 3192 3191 3190 3189 3188 3186 3184 3183 3182
3165 3168 3172 3175 3177 3179 3181 3184 3186 3188 3190 3191 3193 3194 3195 3196 3196 3197 3197 3198 3198 3198 3198 3198 3198 3198 3197 3197 3197 3196 3195 3193 3192 3191 3190 3189 3188 3187 3186 3184 3183 3182 3180
3164 3167 3169 3173 3175 3177 3180 3183 3185 3186 3188 3190 3192 3193 3194 3194 3195 3196 3196 3196 3196 3196 3196 3196 3196 3196 3195 3195 3195 3194 3193 3192 3190 3189 3188 3187 3185 3184 3183 3181 3180 3179 3178
3161 3165 3168 3170 3173 3175 3178 3181 3183 3184 3186 3188 3189 3190 3192 3193 3193 3194 3194 3194 3194 3194 3194 3194 3194 3193 3193 3193 3192 3191 3190 3189 3188 3187 3186 3185 3183 3181 3180 3178 3177 3175 3174
3158 3161 3165 3167 3171 3173 3176 3178 3180 3182 3184 3185 3187 3188 3189 3190 3191 3192 3192 3192 3192 3191 3191 3191 3191 3190 3190 3190 3189 3188 3187 3186 3185 3184 3183 3181 3179 3178 3176 3175 3174 3172 3171
3156 3158 3161 3164 3167 3170 3172 3174 3176 3179 3181 3182 3184 3185 3186 3187 3188 3189 3189 3189 3189 3189 3189 3189 3188 3188 3187 3187 3186 3184 3183 3183 3182 3180 3179 3178 3177 3174 3173 3171 3169 3168 3167
3153 3155 3158 3161 3163 3166 3169 3171 3173 3175 3177 3179 3181 3182 3184 3185 3186 3186 3186 3186 3186 3186 3186 3186 3185 3185 3184 3183 3182 3181 3180 3179 3178 3176 3175 3174 3172 3171 3169 3167 3165 3163 3162
3150 3153 3155 3157 3160 3162 3165 3167 3170 3172 3174 3177 3178 3180 3181 3182 3183 3183 3183 3183 3183 3182 3182 3182 3182 3181 3181 3180 3178 3177 3175 3174 3173 3172 3171 3169 3168 3165 3164 3162 3160 3158 3157
3146 3150 3152 3155 3157 3159 3161 3164 3167 3169 3172 3174 3176 3177 3178 3179 3179 3180 3180 3180 3179 3179 3178 3178 3177 3177 3176 3175 3174 3172 3171 3169 3168 3166 3166 3164 3162 3160 3158 3155 3155 3153 3151
3142 3146 3149 3152 3154 3156 3159 3161 3165 3167 3169 3171 3173 3174 3175 3175 3176 3176 3175 3175 3175 3174 3174 3173 3173 3172 3171 3170 3169 3167 3165 3164 3162 3161 3160 3159 3157 3153 3151 3149 3146 3147 3146
3139 3142 3145 3148 3151 3153 3156 3158 3161 3163 3166 3167 3168 3170 3170 3171 3171 3171 3171 3170 3169 3169 3169 3168 3167 3166 3165 3165 3162 3161 3159 3157 3155 3155 3154 3152 3150 3147 3145 3142 3141 3139 3138
3135 3138 3141 3145 3147 3150 3152 3154 3156 3158 3161 3163 3164 3164 3165 3166 3166 3166 3166 3165 3164 3163 3164 3163 3161 3159 3158 3158 3156 3154 3151 3152 3150 3145 3147 3146 3144 3141 3139 3137 3134 3133 3131
3130 3133 3137 3140 3142 3145 3147 3149 3152 3154 3156 3158 3158 3158 3159 3160 3160 3160 3160 3159 3158 3157 3157 3156 3155 3153 3151 3151 3150 3148 3144 3142 3141 3139 3138 3139 3137 3134 3132 3130 3128 3126 3125
3125 3128 3131 3135 3138 3140 3142 3145 3148 3149 3151 3151 3153 3153 3153 3154 3154 3154 3154 3153 3152 3151 3150 3149 3148 3146 3144 3142 3141 3141 3139 3136 3134 3131 3131 3132 3130 3129 3126 3124 3122 3120 3119
3120 3123 3125 3129 3133 3136 3138 3140 3142 3143 3144 3145 3146 3146 3147 3147 3147 3147 3147 3146 3145 3143 3142 3141 3140 3138 3137 3134 3133 3132 3131 3130 3129 3126 3122 3123 3123 3121 3120 3118 3116 3114 3113
3113 3116 3119 3122 3126 3129 3132 3134 3136 3137 3138 3139 3139 3140 3140 3140 3140 3140 3140 3138 3137 3135 3134 3133 3131 3130 3129 3127 3126 3124 3122 3121 3121 3119 3116 3116 3115 3113 3113 3111 3111 3108 3106